Weather History for Waycross, GA

Change the Weather History Date:

Sunday, August 25, 2013

  Actual Average (KAMG) Record (KAMG)
Temperature  
Mean Temperature 80 °F 81 °F  
Max Temperature 89 °F 90 °F 100 °F (1968)
Min Temperature 71 °F 71 °F 57 °F (1957)
Degree Days  
Heating Degree Days 0 0  
Month to date heating degree days 0  
Since 1 June heating degree days 0  
Since 1 July heating degree days 0  
Cooling Degree Days 15 16  
Month to date cooling degree days 414  
Year to date cooling degree days 1816  
Since 1 June cooling degree days 1386  
Growing Degree Days 30 (Base 50)    
Moisture  
Dew Point 72 °F    
Average Humidity 79    
Maximum Humidity 100    
Minimum Humidity 51    
Precipitation  
Precipitation 0.00 in 0.17 in 1.58 in (1961)
Month to date precipitation 4.50  
Year to date precipitation 33.30  
Snow  
Snow 0.00 in 0.00 in 0.00 in ()
Month to date snowfall 0.0  
Since 1 June snowfall 0.0  
Since 1 July snowfall 0.0  
Snow Depth -    
Sea Level Pressure  
Sea Level Pressure 30.21 in    
Wind  
Wind Speed 6 mph (ENE)    
Max Wind Speed 13 mph    
Max Gust Speed 20 mph    
Visibility 9 miles    
Events      
T = Trace of Precipitation, MM = Missing Value Source: NWS Daily Summary

Daily Weather History Graph

Daily Weather History Graph

Search for Another Location

Airport:

Trip Planner

Search our weather history database for the weather conditions in past years. The results will help you decide how hot, cold, wet, or windy it might be!

Date:

Astronomy

Aug. 25, 2013 Rise Set
Actual Time 7:01 AM EDT 8:01 PM EDT
Civil Twilight 6:36 AM EDT 8:26 PM EDT
Nautical Twilight 6:06 AM EDT 8:55 PM EDT
Astronomical Twilight 5:36 AM EDT 9:25 PM EDT
Moon 10:55 PM EDT (8/25) 11:39 AM EDT (8/25)
Length of Visible Light 13h 49m
Length of Day
12h 59m
Waning Gibbous, 76% of the Moon is Illuminated
Aug 25
Waning Gibbous
Aug 28
Last Quarter
Sep 5
New
Sep 12
First Quarter
Sep 19
Full

Hourly Weather History & Observations

Time (EDT) Temp. Heat Index Dew Point Humidity Pressure Visibility Wind Dir Wind Speed Gust Speed Precip Events Conditions
12:15 AM 77.0 °F - 75.2 °F 94% 30.17 in 5.0 mi NE 5.8 mph - N/A   Clear
12:35 AM 75.2 °F - 75.2 °F 100% 30.18 in 5.0 mi NE 4.6 mph - N/A   Clear
12:55 AM 75.2 °F - 75.2 °F 100% 30.18 in 5.0 mi NE 6.9 mph - N/A   Clear
1:15 AM 75.2 °F - 75.2 °F 100% 30.18 in 5.0 mi NE 5.8 mph - N/A   Clear
1:35 AM 75.2 °F - 75.2 °F 100% 30.19 in 5.0 mi NE 4.6 mph - N/A   Scattered Clouds
1:55 AM 75.2 °F - 75.2 °F 100% 30.19 in 5.0 mi NE 3.5 mph - N/A   Mostly Cloudy
2:15 AM 75.2 °F - 75.2 °F 100% 30.18 in 5.0 mi NE 4.6 mph - N/A   Overcast
2:35 AM 75.2 °F - 73.4 °F 94% 30.18 in 5.0 mi NE 3.5 mph - N/A   Overcast
2:55 AM 75.2 °F - 73.4 °F 94% 30.18 in 5.0 mi NE 4.6 mph - N/A   Overcast
3:15 AM 75.2 °F - 73.4 °F 94% 30.17 in 5.0 mi NE 4.6 mph - N/A   Overcast
3:35 AM 75.2 °F - 73.4 °F 94% 30.18 in 7.0 mi ENE 3.5 mph - N/A   Overcast
3:55 AM 75.2 °F - 73.4 °F 94% 30.18 in 7.0 mi ENE 3.5 mph - N/A   Overcast
4:15 AM 75.2 °F - 73.4 °F 94% 30.18 in 7.0 mi NE 3.5 mph - N/A   Overcast
4:35 AM 75.2 °F - 73.4 °F 94% 30.18 in 7.0 mi ENE 4.6 mph - N/A   Overcast
4:55 AM 75.2 °F - 73.4 °F 94% 30.18 in 7.0 mi NE 3.5 mph - N/A   Overcast
5:15 AM 75.2 °F - 73.4 °F 94% 30.19 in 7.0 mi NNE 4.6 mph - N/A   Overcast
5:35 AM 75.2 °F - 73.4 °F 94% 30.19 in 7.0 mi NE 4.6 mph - N/A   Scattered Clouds
5:55 AM 75.2 °F - 73.4 °F 94% 30.20 in 7.0 mi NE 5.8 mph - N/A   Clear
6:15 AM 73.4 °F - 73.4 °F 100% 30.20 in 7.0 mi NE 4.6 mph - N/A   Clear
6:35 AM 73.4 °F - 73.4 °F 100% 30.21 in 7.0 mi NE 4.6 mph - N/A   Clear
6:55 AM 73.4 °F - 73.4 °F 100% 30.21 in 7.0 mi NE 4.6 mph - N/A   Clear
7:15 AM 73.4 °F - 73.4 °F 100% 30.22 in 7.0 mi NE 4.6 mph - N/A   Clear
7:35 AM 73.4 °F - 73.4 °F 100% 30.22 in 7.0 mi NE 4.6 mph - N/A   Scattered Clouds
7:55 AM 73.4 °F - 73.4 °F 100% 30.22 in 10.0 mi NE 5.8 mph - N/A   Scattered Clouds
8:15 AM 75.2 °F - 73.4 °F 94% 30.22 in 10.0 mi NE 8.1 mph - N/A   Clear
8:35 AM 75.2 °F - 73.4 °F 94% 30.22 in 10.0 mi NE 8.1 mph - N/A   Clear
8:55 AM 77.0 °F - 73.4 °F 89% 30.22 in 10.0 mi NE 6.9 mph - N/A   Clear
9:15 AM 78.8 °F - 73.4 °F 83% 30.22 in 10.0 mi NE 6.9 mph - N/A   Clear
9:35 AM 80.6 °F 86.2 °F 75.2 °F 84% 30.23 in 10.0 mi ENE 6.9 mph - N/A   Clear
9:55 AM 80.6 °F 86.2 °F 75.2 °F 84% 30.24 in 10.0 mi East 8.1 mph - N/A   Clear
10:15 AM 82.4 °F 89.5 °F 75.2 °F 79% 30.24 in 10.0 mi ENE 10.4 mph - N/A   Scattered Clouds
10:35 AM 82.4 °F 89.5 °F 75.2 °F 79% 30.24 in 10.0 mi ENE 9.2 mph 16.1 mph N/A   Scattered Clouds
11:15 AM 84.2 °F 90.9 °F 73.4 °F 70% 30.24 in 10.0 mi ENE 6.9 mph - N/A   Scattered Clouds
11:35 AM 84.2 °F 90.9 °F 73.4 °F 70% 30.24 in 10.0 mi NE 9.2 mph - N/A   Scattered Clouds
11:55 AM 84.2 °F 90.9 °F 73.4 °F 70% 30.24 in 10.0 mi ENE 9.2 mph 18.4 mph N/A   Scattered Clouds
12:15 PM 86.0 °F 93.4 °F 73.4 °F 66% 30.24 in 10.0 mi ENE 11.5 mph 16.1 mph N/A   Mostly Cloudy
12:35 PM 87.8 °F 95.6 °F 73.4 °F 62% 30.24 in 10.0 mi ENE 9.2 mph - N/A   Mostly Cloudy
12:55 PM 87.8 °F 95.6 °F 73.4 °F 62% 30.23 in 10.0 mi ENE 6.9 mph - N/A   Scattered Clouds
1:15 PM 86.0 °F 93.4 °F 73.4 °F 66% 30.22 in 10.0 mi NE 8.1 mph 16.1 mph N/A   Scattered Clouds
1:35 PM 87.8 °F 95.6 °F 73.4 °F 62% 30.22 in 10.0 mi ENE 9.2 mph - N/A   Scattered Clouds
1:55 PM 87.8 °F 95.6 °F 73.4 °F 62% 30.21 in 10.0 mi ENE 9.2 mph 16.1 mph N/A   Scattered Clouds
2:15 PM 87.8 °F 93.8 °F 71.6 °F 58% 30.20 in 10.0 mi NE 8.1 mph - N/A   Scattered Clouds
2:35 PM 89.6 °F 96.2 °F 71.6 °F 55% 30.20 in 10.0 mi ENE 8.1 mph 19.6 mph N/A   Scattered Clouds
2:55 PM 87.8 °F 93.8 °F 71.6 °F 58% 30.19 in 10.0 mi ENE 9.2 mph - N/A   Scattered Clouds
3:35 PM 89.6 °F 96.2 °F 71.6 °F 55% 30.18 in 10.0 mi NE 11.5 mph - N/A   Scattered Clouds
3:55 PM 89.6 °F 96.2 °F 71.6 °F 55% 30.18 in 10.0 mi ENE 9.2 mph - N/A   Scattered Clouds
4:15 PM 89.6 °F 94.7 °F 69.8 °F 52% 30.18 in 10.0 mi ENE 11.5 mph 18.4 mph N/A   Clear
4:35 PM 89.6 °F 94.7 °F 69.8 °F 52% 30.17 in 10.0 mi NE 9.2 mph 17.3 mph N/A   Scattered Clouds
4:55 PM 89.6 °F 94.7 °F 69.8 °F 52% 30.17 in 10.0 mi East 11.5 mph - N/A   Scattered Clouds
5:15 PM 89.6 °F 94.7 °F 69.8 °F 52% 30.18 in 10.0 mi East 11.5 mph - N/A   Clear
5:35 PM 87.8 °F 92.6 °F 69.8 °F 55% 30.18 in 10.0 mi ENE 8.1 mph - N/A   Scattered Clouds
5:55 PM 87.8 °F 92.6 °F 69.8 °F 55% 30.18 in 10.0 mi ENE 10.4 mph - N/A   Scattered Clouds
6:15 PM 87.8 °F 92.6 °F 69.8 °F 55% 30.18 in 10.0 mi ENE 12.7 mph - N/A   Clear
6:35 PM 86.0 °F 88.2 °F 66.2 °F 51% 30.18 in 10.0 mi ENE 9.2 mph - N/A   Clear
6:55 PM 84.2 °F 86.6 °F 66.2 °F 55% 30.19 in 10.0 mi ENE 9.2 mph - N/A   Clear
7:15 PM 84.2 °F 86.6 °F 66.2 °F 55% 30.19 in 10.0 mi East 9.2 mph - N/A   Clear
7:35 PM 82.4 °F 84.6 °F 66.2 °F 58% 30.20 in 10.0 mi East 6.9 mph - N/A   Clear
7:55 PM 78.8 °F - 66.2 °F 65% 30.21 in 10.0 mi ENE 4.6 mph - N/A   Clear
8:15 PM 78.8 °F - 66.2 °F 65% 30.21 in 10.0 mi East 3.5 mph - N/A   Clear
8:35 PM 75.2 °F - 68.0 °F 78% 30.22 in 10.0 mi East 4.6 mph - N/A   Clear
8:55 PM 75.2 °F - 69.8 °F 83% 30.22 in 10.0 mi East 4.6 mph - N/A   Clear
9:15 PM 75.2 °F - 69.8 °F 83% 30.23 in 10.0 mi East 4.6 mph - N/A   Clear
9:35 PM 75.2 °F - 69.8 °F 83% 30.23 in 10.0 mi East 3.5 mph - N/A   Clear
9:55 PM 75.2 °F - 69.8 °F 83% 30.24 in 10.0 mi Calm Calm - N/A   Clear
10:15 PM 75.2 °F - 69.8 °F 83% 30.24 in 10.0 mi Calm Calm - N/A   Clear
10:35 PM 73.4 °F - 69.8 °F 88% 30.24 in 10.0 mi Calm Calm - N/A   Clear
10:55 PM 71.6 °F - 69.8 °F 94% 30.24 in 10.0 mi Calm Calm - N/A   Clear
11:15 PM 73.4 °F - 69.8 °F 88% 30.24 in 10.0 mi Calm Calm - N/A   Clear
11:35 PM 71.6 °F - 69.8 °F 94% 30.24 in 10.0 mi NE 3.5 mph - N/A   Clear
11:55 PM 71.6 °F - 69.8 °F 94% 30.24 in 10.0 mi NE 4.6 mph - N/A   Clear